LEMUR-2-SARAHBETTYBOO (43888 NORAD) Tracking and Keplerian Element Data

This shows tracking and keplerian element data for the satellite.

Feedback or suggestion? Click here.




ElementValue
Catalog43888
NameLEMUR-2-SARAHBETTYBOO
Epoch Orbit444
Epoch Day25.89711052
Epoch Year2019
RAAN295.9719
Inclination97.7303
Eccentricity0.0012491
Argument of Perigee135.4738
Mean Anonmoly224.749
Mean Motion14.96705695
Decay Rate1.255E-05
L11 43888U 18111N 19025.89711052 .00001255 00000-0 11485-3 0 9998
L22 43888 97.7303 295.9719 0012491 135.4738 224.7490 14.96705695 4444

Live tracking and technical data element details for LEMUR-2-SARAHBETTYBOO (NORAD 43888). LEMUR-2-SARAHBETTYBOO can be tracked NOW for your location showing map with azimuth and elevation plus other details from your city location.

Track the satellite on the map from your city or location and see movement details for azimuth, elevation, latitude, longitude, range, height, and movement on the map or in text.







IsCatalogInMostPopularTable: catalog: 43888, numindb: 43
Update: records affected: 1



GetName: 43888 LEMUR-2-SARAHBETTYBOO

Hit Count: updated at: Sun, 21 Jul 2019 16:15:33 GMT